Blattenbach Aussen Messungen

Zurück zum Überblick

Zeitpunkt Temperatur Temperatur Kabelsensor Luftfeuchte
21.11.2018 01:41:30 1,8 C 6,1 C 73,0%
21.11.2018 01:34:28 2,1 C 6,1 C 73,0%
21.11.2018 01:27:31 2,1 C 6,1 C 73,0%
21.11.2018 01:20:26 1,9 C 6,1 C 74,0%
21.11.2018 01:13:26 1,9 C 6,1 C 74,0%
21.11.2018 01:06:27 2,0 C 6,1 C 74,0%
21.11.2018 00:59:28 2,0 C 6,1 C 74,0%
21.11.2018 00:52:29 2,0 C 6,1 C 74,0%
21.11.2018 00:45:29 1,7 C 6,1 C 76,0%
21.11.2018 00:38:28 1,9 C 6,1 C 75,0%
21.11.2018 00:31:28 1,8 C 6,1 C 75,0%
21.11.2018 00:24:28 1,7 C 6,1 C 76,0%
21.11.2018 00:17:27 1,8 C 6,1 C 76,0%
21.11.2018 00:10:29 1,9 C 6,1 C 76,0%
21.11.2018 00:03:29 1,9 C 6,1 C 76,0%
20.11.2018 23:56:31 1,7 C 6,2 C 77,0%
20.11.2018 23:49:26 1,6 C 6,2 C 78,0%
20.11.2018 23:42:29 1,3 C 6,2 C 78,0%
20.11.2018 23:35:27 1,1 C 6,2 C 79,0%
20.11.2018 23:28:27 0,9 C 6,2 C 80,0%
20.11.2018 23:21:28 0,6 C 6,2 C 80,0%
20.11.2018 23:14:31 0,3 C 6,2 C 80,0%
20.11.2018 23:07:28 0,3 C 6,2 C 79,0%
20.11.2018 23:00:29 0,5 C 6,2 C 79,0%
20.11.2018 22:53:29 0,5 C 6,2 C 79,0%
20.11.2018 22:46:27 0,6 C 6,2 C 79,0%
20.11.2018 22:39:28 0,7 C 6,2 C 79,0%
20.11.2018 22:32:27 0,9 C 6,2 C 79,0%
20.11.2018 22:25:12 1,1 C 6,3 C 79,0%
20.11.2018 22:18:11 1,3 C 6,3 C 79,0%
20.11.2018 22:11:12 1,2 C 6,3 C 80,0%
20.11.2018 22:04:12 1,2 C 6,3 C 80,0%
20.11.2018 21:57:11 1,3 C 6,3 C 80,0%
20.11.2018 21:50:14 1,2 C 6,3 C 80,0%
20.11.2018 21:43:14 1,1 C 6,3 C 80,0%
20.11.2018 21:36:15 0,9 C 6,3 C 80,0%
20.11.2018 21:29:12 0,8 C 6,3 C 81,0%
20.11.2018 21:22:14 0,8 C 6,3 C 81,0%
20.11.2018 21:15:11 0,7 C 6,3 C 81,0%
20.11.2018 21:08:14 0,8 C 6,3 C 81,0%
20.11.2018 21:01:11 0,7 C 6,3 C 81,0%
20.11.2018 20:54:13 0,7 C 6,4 C 81,0%
20.11.2018 20:47:10 0,6 C 6,4 C 81,0%
20.11.2018 20:40:14 0,6 C 6,4 C 81,0%
20.11.2018 20:33:13 0,7 C 6,4 C 80,0%
20.11.2018 20:26:14 0,7 C 6,4 C 81,0%
20.11.2018 20:19:13 0,5 C 6,4 C 81,0%
20.11.2018 20:12:12 0,3 C 6,4 C 81,0%
20.11.2018 20:05:12 0,1 C 6,4 C 80,0%
20.11.2018 19:58:10 0,0 C 6,4 C 80,0%